• In Germany
  • List of Countries
  • For 7 days
  • Water Temperature
  • Satellite Maps
  • Weather Map
  • Weather Widgets
  • user-avatar
    Login

    Hourly Weather Pointe-Noire

    Today, 20 November, Monday

    Time Temperature Precipitation Wind Pressure Humidity
    00:00 +21°C° 0 mm 0 mps 721 mmHg 91%
    01:00 +21°C° 0 mm 0 mps 721 mmHg 92%
    02:00 +21°C° 0.5 mm 0 mps 721 mmHg 93%
    03:00 +21°C° 0.5 mm 0 mps 720 mmHg 94%
    04:00 +21°C° 0.5 mm 0 mps 720 mmHg 95%
    05:00 +21°C° 0.7 mm 0 mps 720 mmHg 95%
    06:00 +21°C° 0.7 mm 0 mps 721 mmHg 96%
    07:00 +22°C° 0 mm 0 mps 721 mmHg 95%
    08:00 +25°C° 0.5 mm 1 mps 721 mmHg 87%
    09:00 +27°C° 0.5 mm 1 mps 721 mmHg 79%
    10:00 +29°C° 0.5 mm 1 mps 721 mmHg 72%
    11:00 +30°C° 0.3 mm 1 mps 721 mmHg 66%
    12:00 +32°C° 0.3 mm 1 mps 720 mmHg 60%
    13:00 +33°C° 0.3 mm 1 mps 720 mmHg 54%
    14:00 +33°C° 0.5 mm 1 mps 719 mmHg 57%
    15:00 +32°C° 0.5 mm 1 mps 719 mmHg 60%
    16:00 +30°C° 0.5 mm 0 mps 718 mmHg 63%
    17:00 +28°C° 0.2 mm 0 mps 718 mmHg 69%
    18:00 +28°C° 0.2 mm 1 mps 719 mmHg 75%
    19:00 +27°C° 0.2 mm 1 mps 719 mmHg 81%
    20:00 +26°C° 1.3 mm 1 mps 719 mmHg 85%
    21:00 +25°C° 1.3 mm 1 mps 720 mmHg 89%
    22:00 +24°C° 1.3 mm 1 mps 720 mmHg 93%
    23:00 +24°C° 1.5 mm 1 mps 720 mmHg 94%

    Tomorrow, 21 November, Tuesday

    Time Temperature Precipitation Wind Pressure Humidity
    00:00 +24°C° 1.5 mm 1 mps 720 mmHg 96%
    01:00 +24°C° 1.5 mm 1 mps 720 mmHg 98%
    02:00 +24°C° 1 mm 1 mps 720 mmHg 98%
    03:00 +24°C° 1 mm 1 mps 720 mmHg 98%
    04:00 +24°C° 1 mm 1 mps 719 mmHg 98%
    05:00 +24°C° 0.5 mm 1 mps 720 mmHg 97%
    06:00 +22°C° 0.5 mm 0 mps 720 mmHg 97%
    07:00 +22°C° 0.5 mm 0 mps 720 mmHg 97%
    08:00 +24°C° 0.4 mm 0 mps 721 mmHg 90%
    09:00 +25°C° 0.4 mm 0 mps 721 mmHg 84%
    10:00 +27°C° 0.4 mm 0 mps 721 mmHg 77%
    11:00 +30°C° 0.6 mm 1 mps 720 mmHg 72%
    12:00 +31°C° 0.6 mm 1 mps 720 mmHg 67%
    13:00 +32°C° 0.6 mm 1 mps 719 mmHg 62%
    14:00 +32°C° 0.2 mm 1 mps 719 mmHg 60%
    15:00 +32°C° 0.2 mm 1 mps 718 mmHg 58%
    16:00 +32°C° 0.2 mm 1 mps 717 mmHg 56%
    17:00 +30°C° 0.1 mm 1 mps 718 mmHg 63%
    18:00 +29°C° 0.1 mm 1 mps 718 mmHg 70%
    19:00 +25°C° 0.1 mm 0 mps 718 mmHg 76%
    20:00 +26°C° 0 mm 1 mps 719 mmHg 80%
    21:00 +26°C° 0 mm 1 mps 719 mmHg 83%
    22:00 +25°C° 0 mm 1 mps 720 mmHg 87%
    23:00 +25°C° 0.1 mm 1 mps 720 mmHg 90%

    Day after tomorrow, 22 November, Wednesday

    Time Temperature Precipitation Wind Pressure Humidity
    00:00 +25°C° 0.1 mm 1 mps 720 mmHg 93%
    01:00 +24°C° 0.1 mm 1 mps 720 mmHg 95%
    02:00 +24°C° 0.3 mm 1 mps 719 mmHg 96%
    03:00 +24°C° 0.3 mm 1 mps 719 mmHg 97%
    04:00 +24°C° 0.3 mm 1 mps 719 mmHg 97%
    05:00 +24°C° 0.1 mm 1 mps 719 mmHg 96%
    06:00 +24°C° 0.1 mm 1 mps 720 mmHg 96%
    07:00 +25°C° 0.1 mm 1 mps 720 mmHg 95%
    08:00 +26°C° 0 mm 1 mps 720 mmHg 90%
    09:00 +27°C° 0 mm 1 mps 721 mmHg 84%
    10:00 +28°C° 0 mm 1 mps 721 mmHg 79%
    11:00 +29°C° 0.1 mm 1 mps 720 mmHg 75%
    12:00 +30°C° 0.1 mm 1 mps 719 mmHg 71%
    13:00 +31°C° 0.1 mm 1 mps 719 mmHg 66%
    14:00 +31°C° 0.1 mm 1 mps 718 mmHg 66%
    15:00 +31°C° 0.1 mm 1 mps 718 mmHg 66%
    16:00 +31°C° 0.1 mm 1 mps 717 mmHg 66%
    17:00 +29°C° 0.4 mm 1 mps 718 mmHg 74%
    18:00 +28°C° 0.4 mm 1 mps 718 mmHg 83%
    19:00 +26°C° 0.4 mm 1 mps 719 mmHg 91%
    20:00 +25°C° 0 mm 2 mps 719 mmHg 92%
    21:00 +25°C° 0 mm 2 mps 720 mmHg 93%
    22:00 +25°C° 0 mm 2 mps 721 mmHg 95%
    23:00 +25°C° 0 mm 2 mps 720 mmHg 94%

    23 November, Thursday

    Time Temperature Precipitation Wind Pressure Humidity
    00:00 +25°C° 0 mm 2 mps 720 mmHg 94%
    01:00 +25°C° 0 mm 2 mps 720 mmHg 94%
    02:00 +24°C° 0.2 mm 2 mps 719 mmHg 95%
    03:00 +24°C° 0.2 mm 2 mps 719 mmHg 95%
    04:00 +24°C° 0.2 mm 1 mps 719 mmHg 96%
    05:00 +24°C° 0 mm 1 mps 719 mmHg 96%
    06:00 +24°C° 0 mm 1 mps 720 mmHg 95%
    07:00 +24°C° 0 mm 1 mps 720 mmHg 95%
    08:00 +25°C° 0 mm 1 mps 720 mmHg 91%
    09:00 +26°C° 0 mm 1 mps 721 mmHg 86%
    10:00 +27°C° 0 mm 1 mps 721 mmHg 82%
    11:00 +28°C° 0.1 mm 1 mps 720 mmHg 75%
    12:00 +30°C° 0.1 mm 1 mps 720 mmHg 68%
    13:00 +31°C° 0.1 mm 1 mps 719 mmHg 61%
    14:00 +31°C° 0.3 mm 1 mps 719 mmHg 62%
    15:00 +31°C° 0.3 mm 1 mps 718 mmHg 62%
    16:00 +31°C° 0.3 mm 1 mps 718 mmHg 63%
    17:00 +29°C° 0.1 mm 1 mps 718 mmHg 71%
    18:00 +27°C° 0.1 mm 1 mps 719 mmHg 78%
    19:00 +26°C° 0.1 mm 2 mps 719 mmHg 86%
    20:00 +25°C° 0 mm 2 mps 720 mmHg 89%
    21:00 +25°C° 0 mm 2 mps 720 mmHg 91%
    22:00 +24°C° 0 mm 2 mps 721 mmHg 94%
    23:00 +24°C° 0 mm 1 mps 721 mmHg 95%

    24 November, Friday

    Time Temperature Precipitation Wind Pressure Humidity
    00:00 +24°C° 0 mm 1 mps 720 mmHg 95%
    01:00 +24°C° 0 mm 1 mps 720 mmHg 96%
    02:00 +23°C° 0 mm 1 mps 720 mmHg 96%
    03:00 +23°C° 0 mm 1 mps 720 mmHg 96%
    04:00 +23°C° 0 mm 1 mps 719 mmHg 96%
    05:00 +23°C° 0 mm 1 mps 720 mmHg 95%
    06:00 +24°C° 0 mm 1 mps 720 mmHg 94%
    07:00 +24°C° 0 mm 1 mps 721 mmHg 93%
    08:00 +25°C° 0 mm 1 mps 721 mmHg 87%
    09:00 +26°C° 0 mm 1 mps 721 mmHg 80%
    10:00 +28°C° 0 mm 1 mps 721 mmHg 74%
    11:00 +30°C° 0 mm 1 mps 721 mmHg 64%
    12:00 +30°C° 0 mm 0 mps 720 mmHg 54%
    13:00 +33°C° 0 mm 0 mps 719 mmHg 44%
    14:00 +32°C° 0 mm 0 mps 719 mmHg 44%
    15:00 +31°C° 0 mm 0 mps 718 mmHg 44%
    16:00 +31°C° 0 mm 0 mps 718 mmHg 44%
    17:00 +29°C° 0 mm 0 mps 718 mmHg 53%
    18:00 +28°C° 0 mm 1 mps 718 mmHg 61%
    19:00 +26°C° 0 mm 1 mps 719 mmHg 70%
    20:00 +25°C° 0 mm 1 mps 719 mmHg 73%
    21:00 +25°C° 0 mm 1 mps 720 mmHg 77%
    22:00 +24°C° 0 mm 1 mps 720 mmHg 81%
    23:00 +24°C° 0 mm 1 mps 720 mmHg 85%

    25 November, Saturday

    Time Temperature Precipitation Wind Pressure Humidity
    00:00 +24°C° 0 mm 1 mps 720 mmHg 89%
    01:00 +24°C° 0 mm 1 mps 720 mmHg 93%
    02:00 +24°C° 0 mm 1 mps 720 mmHg 93%
    03:00 +24°C° 0 mm 1 mps 720 mmHg 93%
    04:00 +24°C° 0 mm 1 mps 720 mmHg 93%
    05:00 +24°C° 0 mm 1 mps 720 mmHg 92%
    06:00 +24°C° 0 mm 1 mps 721 mmHg 92%
    07:00 +24°C° 0 mm 1 mps 721 mmHg 92%
    08:00 +26°C° 0 mm 1 mps 721 mmHg 84%
    09:00 +27°C° 0 mm 1 mps 721 mmHg 77%
    10:00 +29°C° 0 mm 1 mps 722 mmHg 69%
    11:00 +31°C° 0 mm 1 mps 721 mmHg 60%
    12:00 +33°C° 0 mm 1 mps 720 mmHg 51%
    13:00 +34°C° 0 mm 1 mps 720 mmHg 43%
    14:00 +34°C° 0 mm 1 mps 719 mmHg 41%
    15:00 +32°C° 0 mm 0 mps 719 mmHg 40%
    16:00 +31°C° 0 mm 0 mps 718 mmHg 39%
    17:00 +29°C° 0 mm 0 mps 719 mmHg 47%
    18:00 +29°C° 0 mm 1 mps 719 mmHg 54%
    19:00 +26°C° 0 mm 1 mps 720 mmHg 61%
    20:00 +26°C° 0 mm 1 mps 720 mmHg 67%
    21:00 +25°C° 0 mm 1 mps 721 mmHg 74%
    22:00 +24°C° 0 mm 2 mps 721 mmHg 80%
    23:00 +24°C° 0 mm 1 mps 721 mmHg 84%
    Show more